Theta_e
334 338 335 335 334 333 332 330 328 326 325 325 322 322 321 321 321 320 318 319 320 322 325 328 331 333 333 333 335 333 333 333 333 331 333 331 331 331 334 331 323 331 327
334 336 334 333 333 332 330 327 324 323 323 322 321 320 319 319 318 318 318 317 318 319 320 321 324 326 329 330 331 332 332 333 332 332 331 330 331 331 333 331 324 330 328
334 335 332 332 332 331 327 324 323 321 321 320 319 318 317 317 316 316 316 316 317 318 318 319 319 320 322 324 328 329 330 331 332 331 332 333 334 331 332 332 326 331 330
334 335 332 331 331 327 324 322 321 321 320 319 317 316 316 315 316 315 315 315 316 316 316 317 318 318 318 319 321 324 326 329 330 331 332 333 333 333 331 334 325 331 332
334 333 330 329 329 325 323 321 321 320 318 317 315 315 315 315 315 315 314 314 314 315 316 316 317 317 317 317 317 318 320 324 327 329 332 332 332 333 332 334 331 332 331
333 331 329 328 327 324 321 321 319 318 316 314 315 315 315 314 313 313 313 313 314 315 315 316 316 316 316 316 316 316 316 317 322 327 329 332 331 332 331 334 332 331 328
331 329 328 327 325 323 322 320 319 317 314 314 314 313 311 309 308 310 310 310 313 314 315 315 315 315 315 315 316 316 316 315 311 320 326 328 331 331 332 333 331 330 328
330 328 327 326 322 321 321 319 317 314 313 313 310 306 305 304 303 302 303 311 312 313 313 314 314 314 314 315 315 315 315 315 313 312 317 325 328 330 331 331 332 329 328
329 328 327 325 321 319 318 316 313 309 309 306 306 306 305 303 301 303 304 307 310 311 312 312 312 313 313 313 312 311 307 307 311 313 312 317 324 327 330 331 331 329 327
329 328 327 324 321 320 317 313 309 305 304 306 306 306 305 305 306 306 304 303 304 306 308 310 311 311 310 308 308 306 306 307 310 311 310 311 317 323 328 330 330 330 328
328 327 326 323 321 319 317 311 307 304 305 307 308 307 306 307 307 306 304 303 305 307 307 310 311 307 309 311 311 311 309 310 313 313 312 310 309 316 325 329 330 328 329
327 326 324 322 320 317 313 311 310 308 310 310 309 308 307 307 305 306 307 308 310 309 310 311 311 311 311 312 312 312 311 311 312 312 312 311 310 308 319 328 330 330 330
327 325 323 321 319 315 311 310 309 310 311 310 309 307 308 307 307 308 310 311 311 311 312 312 312 311 312 312 312 312 312 312 312 312 312 312 310 308 315 325 329 329 329
327 325 322 320 317 314 311 309 310 311 311 310 308 307 308 307 308 310 311 311 311 312 311 310 310 311 312 312 312 312 313 314 314 313 314 313 310 305 314 322 327 329 328
326 324 322 319 316 313 311 310 311 311 310 308 307 307 307 307 309 311 311 311 311 311 311 312 312 311 311 312 312 313 314 315 316 316 316 317 317 307 310 320 327 329 328
326 324 322 319 316 312 312 311 311 311 309 307 307 307 306 308 310 311 311 312 312 311 312 313 312 312 312 312 312 313 314 315 316 316 317 318 319 312 310 320 325 328 328
325 324 322 319 315 312 312 311 311 310 308 307 307 307 306 308 309 311 311 311 311 311 312 313 313 313 314 314 313 313 313 315 316 316 316 317 314 309 319 324 324 326 328
325 324 322 318 315 313 312 311 310 308 307 307 307 307 307 308 309 311 311 311 310 311 312 312 312 313 313 314 313 312 313 314 315 316 317 319 322 321 324 325 323 321 324
324 323 321 317 315 313 312 310 309 308 307 306 307 306 307 308 309 310 311 310 310 312 312 313 312 314 314 314 313 312 313 314 315 317 318 321 321 322 324 319 320 320 319
323 323 320 317 315 312 310 309 308 307 306 306 307 307 308 308 309 310 311 311 310 312 312 313 313 313 314 314 313 312 312 313 315 317 319 322 323 325 324 322 320 321 323
321 322 320 316 314 311 309 309 308 308 307 307 307 306 308 308 309 310 311 311 310 312 313 313 313 314 313 314 315 314 314 313 313 318 321 321 322 322 322 322 322 323 324
320 321 319 316 312 310 309 309 309 308 307 307 307 307 307 308 308 308 311 311 310 312 313 313 313 314 314 314 314 316 317 314 312 313 317 319 320 321 321 321 321 322 322
318 320 317 314 311 310 309 307 306 306 305 306 306 307 307 307 308 308 310 311 311 312 313 313 312 314 314 315 314 315 318 315 311 310 313 316 317 319 317 319 319 319 318
318 318 315 313 310 309 308 307 307 306 306 306 307 307 306 307 308 308 310 311 310 311 313 313 312 314 314 316 316 315 315 314 313 313 310 312 314 315 317 316 317 316 316
317 316 314 311 310 308 307 308 307 306 305 306 307 307 307 307 307 307 310 311 310 311 313 312 312 314 314 315 316 316 314 313 312 312 313 310 309 311 313 314 314 313 314
316 315 313 311 309 308 308 307 306 304 305 307 306 306 307 308 308 307 309 310 310 311 312 311 312 313 314 315 315 316 317 315 312 310 307 305 306 305 309 312 313 313 314
Wind_Speed
9 14 11 10 8 7 6 7 7 7 6 7 6 7 7 8 9 9 8 8 8 9 9 8 6 8 8 6 6 4 4 5 5 6 7 9 8 9 10 10 9 8 9
15 13 11 10 8 7 7 7 6 5 6 8 8 8 8 8 9 9 10 10 10 10 9 9 9 8 7 8 8 7 6 5 7 7 7 6 10 10 11 11 10 8 11
14 12 11 10 9 7 8 6 6 5 7 8 8 9 8 9 9 9 9 10 9 9 9 9 9 10 10 9 10 9 8 8 8 9 9 8 10 12 13 13 13 9 12
13 13 11 9 7 9 7 6 6 7 8 8 8 8 9 9 10 9 9 10 10 10 10 10 10 11 11 11 11 10 9 10 9 10 10 11 11 12 14 15 16 12 12
11 11 11 9 8 9 7 6 7 8 8 8 8 8 8 8 9 9 10 11 11 10 10 10 10 10 10 11 11 11 11 11 11 10 11 13 12 13 15 17 16 15 16
12 11 11 9 10 10 8 8 8 8 7 7 7 7 7 8 9 10 10 11 12 11 11 11 11 11 11 12 12 12 11 12 14 11 11 11 14 11 15 17 19 18 18
11 11 11 10 10 10 9 8 8 7 7 7 7 7 7 8 9 9 10 11 11 11 11 12 12 12 12 12 11 11 11 12 13 13 13 12 10 13 13 16 19 21 20
11 12 11 10 10 9 8 8 7 6 6 5 4 5 7 8 10 11 10 9 10 10 11 11 11 11 11 11 11 12 12 13 11 13 15 16 15 12 12 14 16 20 21
10 11 11 10 9 9 7 7 6 4 3 1 4 6 9 10 11 10 9 9 9 10 11 11 11 11 12 12 13 13 13 13 14 13 14 15 17 16 12 13 14 18 21
11 11 11 10 10 8 7 6 4 2 0 3 5 8 10 12 13 12 9 10 10 11 11 12 12 13 13 14 13 13 14 13 12 12 13 14 16 17 12 13 13 16 23
12 12 11 11 10 8 7 6 3 1 1 4 7 10 10 8 8 8 10 12 12 14 14 14 14 14 14 13 14 13 14 9 9 10 11 13 18 19 12 12 13 14 23
15 14 13 11 10 9 7 5 4 2 1 2 5 7 7 8 9 11 11 15 16 17 14 15 14 16 13 12 12 13 10 9 10 10 11 13 16 17 15 11 11 14 22
16 15 14 13 11 9 7 6 4 3 1 1 4 6 7 7 7 8 9 10 11 13 14 15 14 14 15 13 12 12 11 10 10 10 11 15 16 14 14 13 11 14 19
18 16 15 13 11 9 7 6 4 3 1 1 3 5 5 6 7 8 9 10 10 11 14 16 15 15 14 12 12 13 11 11 10 9 10 12 10 12 13 14 14 17 22
18 17 16 14 12 10 8 5 4 3 1 1 2 4 4 4 6 7 8 9 10 11 13 13 15 14 13 12 12 13 12 12 11 9 8 5 9 11 14 13 14 21 27
19 19 17 16 13 11 9 7 5 3 2 1 2 2 4 4 5 6 7 9 10 10 12 12 13 13 13 12 12 13 12 13 10 6 6 5 7 9 12 11 13 21 36
20 18 18 17 15 13 10 8 6 4 2 1 0 2 2 3 5 6 7 9 11 10 11 10 11 14 14 14 13 14 13 13 12 10 6 1 1 7 9 4 3 12 44
20 20 18 17 16 14 11 9 6 4 3 1 0 1 2 3 4 5 7 9 10 9 10 10 11 14 13 14 17 16 13 12 11 9 7 4 4 8 10 17 17 24 27
21 21 19 18 16 14 11 9 7 5 3 2 1 1 1 3 4 4 6 8 9 8 8 8 11 11 11 13 18 15 15 15 14 13 12 8 6 9 20 24 19 21 26
21 20 20 18 17 15 13 10 7 5 4 3 2 2 1 1 3 4 5 7 9 7 8 9 9 10 9 10 9 15 20 18 18 19 19 14 17 19 21 20 23 24 32
20 22 23 21 20 18 15 11 7 6 5 4 3 3 2 0 2 4 4 6 8 7 8 9 10 9 10 12 5 5 14 25 29 28 26 23 22 24 20 18 19 27 32
22 22 23 22 21 18 16 11 6 8 6 4 4 4 3 1 1 3 4 5 7 6 8 10 11 9 7 12 5 6 2 9 21 31 32 28 27 23 22 28 30 39 35
24 25 24 24 22 19 15 13 9 7 6 6 6 5 4 2 0 2 3 3 5 6 6 8 10 9 9 8 11 4 3 3 4 21 31 36 35 34 35 32 29 36 42
23 23 23 23 22 19 17 13 11 8 7 7 8 6 5 3 1 2 3 3 3 5 5 7 8 8 8 8 7 11 15 12 3 3 22 30 39 37 42 43 42 40 40
22 23 23 21 20 18 17 12 11 8 6 8 8 8 6 4 3 1 2 2 4 4 4 5 6 7 7 7 8 6 16 17 15 8 6 15 36 35 41 41 41 36 34
21 22 22 22 20 18 16 13 11 10 9 9 8 8 7 6 4 2 2 2 3 4 3 4 6 6 5 6 7 8 8 6 5 10 7 11 16 25 36 37 36 31 35
Wind_Direction
155 149 161 161 145 137 137 110 102 90 77 67 48 45 35 33 28 18 9 6 2 359 356 349 341 349 2 1 357 323 277 247 244 239 245 249 229 207 191 185 167 161 164
152 150 161 156 159 152 126 118 108 94 73 66 57 54 46 39 33 28 22 16 12 8 360 354 349 341 312 321 337 341 316 262 233 234 232 229 211 207 201 195 173 185 165
148 148 170 177 177 160 128 117 105 87 77 69 58 49 41 34 29 26 19 16 12 8 2 357 348 342 339 330 330 333 330 310 261 233 226 215 211 212 203 198 178 178 170
143 140 166 180 176 141 132 127 110 93 83 70 57 46 36 29 25 18 12 13 7 0 355 349 345 340 337 335 327 316 314 310 298 259 244 233 224 222 207 201 188 180 176
140 144 171 182 159 143 142 128 107 95 83 69 54 43 36 27 17 13 8 3 359 356 352 345 339 339 335 330 323 316 305 286 285 288 263 246 235 222 206 199 196 187 182
139 147 169 177 161 149 145 122 107 100 85 70 58 50 37 26 15 10 3 0 357 355 349 342 339 335 331 327 323 319 312 301 268 278 275 259 238 230 214 202 196 195 188
148 151 167 179 156 143 134 121 112 101 86 73 66 47 27 10 4 360 359 359 356 351 348 342 339 334 330 325 320 314 309 298 277 266 267 277 246 243 223 211 210 202 192
150 153 163 169 158 146 136 124 116 105 90 76 49 12 0 353 349 346 351 5 360 356 353 346 338 332 326 319 312 306 300 288 282 268 256 260 254 242 235 228 224 212 197
154 156 155 155 155 161 156 152 142 126 116 13 2 358 352 348 351 355 359 357 359 358 354 344 335 329 324 316 310 306 304 298 277 264 254 249 254 244 244 236 228 215 198
162 164 165 163 156 152 145 176 176 166 347 352 351 351 356 10 359 355 10 355 360 356 346 336 332 328 321 320 320 309 300 293 282 261 253 247 255 247 238 237 234 221 201
172 174 175 170 167 165 162 174 187 190 341 355 360 351 8 352 357 4 353 0 359 354 348 342 337 337 342 339 324 324 320 288 278 265 256 249 248 247 245 240 232 224 203
182 181 180 178 174 170 172 169 166 156 135 17 1 356 356 356 351 13 355 359 0 358 2 352 344 348 341 328 324 320 308 296 283 271 263 259 258 251 244 242 232 222 209
188 186 183 181 179 177 180 179 176 174 171 14 9 3 357 357 3 2 356 355 356 357 358 353 347 343 335 331 326 319 310 298 281 268 257 261 262 249 240 238 236 213 185
189 188 184 181 179 182 183 182 188 180 165 40 5 8 10 5 8 6 2 356 359 358 356 353 346 346 343 336 327 322 321 313 294 276 266 265 257 241 234 230 231 206 182
190 187 186 181 180 181 179 185 187 190 159 84 18 11 16 14 11 9 3 3 359 354 351 348 349 353 350 348 347 336 330 322 313 285 276 270 262 232 220 226 230 200 172
192 189 183 182 180 180 180 180 189 182 176 72 19 17 12 21 16 11 8 4 2 351 345 350 354 360 0 359 355 345 337 330 323 337 322 281 256 218 211 214 230 199 167
194 187 184 181 179 179 179 179 183 185 162 133 32 22 25 21 11 14 11 7 357 351 352 354 359 355 7 6 2 352 1 345 357 16 24 347 127 169 173 195 183 212 171
190 189 184 180 179 176 176 175 177 188 164 151 114 28 41 22 17 14 15 13 357 358 2 357 354 2 9 12 13 7 6 11 17 37 38 58 122 144 149 152 140 90 97
190 185 183 179 176 172 172 168 173 177 166 161 157 105 20 14 19 18 22 10 1 11 8 6 3 13 7 25 17 27 31 30 36 31 41 46 105 124 146 135 116 127 147
188 185 180 176 172 169 170 172 176 183 174 169 171 158 116 8 19 22 23 9 11 15 13 4 0 7 2 351 7 30 41 49 52 53 56 67 94 106 147 141 133 137 143
190 183 178 174 172 169 170 162 178 191 181 178 180 170 150 357 29 16 22 16 24 15 9 4 355 2 4 3 348 341 36 43 55 64 72 85 95 105 118 124 142 145 127
190 184 179 176 173 173 173 171 169 172 180 182 185 174 178 173 43 30 30 25 23 11 16 14 12 359 9 15 355 319 25 19 38 52 72 85 88 93 93 93 139 110 119
188 185 179 176 173 172 170 173 159 156 147 167 188 183 192 175 132 37 32 26 12 12 16 13 18 9 353 27 39 356 36 11 331 36 59 80 85 93 87 111 98 100 108
184 181 177 174 171 172 173 172 176 180 170 185 182 174 173 177 180 47 36 26 32 10 8 11 1 3 2 28 57 54 63 47 37 49 55 72 84 87 93 90 102 102 108
176 175 172 170 170 172 175 178 180 183 167 162 168 163 171 173 176 108 65 30 34 19 6 360 1 5 26 33 52 52 65 71 61 56 80 72 72 75 91 97 107 109 111
170 169 168 169 170 170 174 178 182 181 170 166 172 172 176 172 182 159 113 66 58 51 14 26 1 355 35 59 59 59 75 122 92 86 79 57 77 66 91 105 112 117 119